Regional Weather Roundup
Issued by NWS

Home | Current Version | Previous Version | Text Only | Print | Product List | Glossary Off
Versions: 1 2 3 4 5 6 7 8 9 10 11 12 13 14 15 16 17 18 19 20 21 22 23 24 25 26 27 28 29 30 31 32 33 34 35 36 37 38 39 40 41 42 43 44 45 46 47 48 49 50

000
ASUS43 KDMX 241401
RWRIA

WEATHER ROUNDUP FOR IOWA
NATIONAL WEATHER SERVICE DES MOINES IA
800 AM CST SAT FEB 24 2018

NOTE: "FAIR" INDICATES FEW OR NO CLOUDS BELOW 12,000 FEET WITH NO
SIGNIFICANT WEATHER AND/OR OBSTRUCTIONS TO VISIBILITY.

* - THESE STATIONS ARE NOT NWS STATIONS...THUS NOT UNDER NWS
QUALITY CONTROL.  THEY ALSO DO NOT REPORT WEATHER SUCH
AS PRECIPITATION OR FOG.

IAZ001>003-012>014-020>022-031>034-043>046-241500-
   NORTHWEST IOWA

CITY           SKY/WX    TMP DP  RH WIND       PRES   REMARKS
CARROLL *      MOCLDY    19  19 100 E10       29.98F FOG     WCI   8
CHEROKEE *     CLOUDY    18  18 100 E7        30.01R WCI   8
DENISON *      CLOUDY    21  19  93 E8        30.00S WCI  12
LE MARS *      FLURRIES  18  16  93 NE5       30.02S WCI  11
ORANGE CITY *  CLOUDY    16  16 100 CALM      30.00S FOG
SHELDON *      CLOUDY    14  14 100 SE8       30.00R FOG     WCI   3
SIOUX CITY     LGT SNOW  20  18  92 E8        30.01F FOG     WCI  10
SPENCER        FRZ RAIN  19  14  81 E9        30.01F WCI   8
STORM LAKE *   CLOUDY    18  16  93 E22       29.97F FOG     WCI   0
$$

IAZ055>058-069>071-079>083-090>094-241500-
   SOUTHWEST IOWA

CITY           SKY/WX    TMP DP  RH WIND       PRES   REMARKS
ATLANTIC *     CLOUDY    27  25  93 SE7       29.98F WCI  19
AUDUBON *      MIX PCPN  25  21  86 SE3G9     29.99R
CLARINDA *     PTCLDY    28  28 100 SE6       30.00F FOG     WCI  22
COUNCIL BLFS * PTCLDY    27  27 100 E8        29.95F FOG     WCI  18
CRESTON *      MIX PCPN  28  27  93 SE16      29.98S WCI  17
HARLAN  *      LGT RAIN  25  25 100 SE8       30.01F WCI  16
LAMONI         FRZ RAIN  30  27  88 E10       29.97F FOG     WCI  21
RED OAK *      CLOUDY    28  28 100 E8        29.98F FOG     WCI  20
SHENANDOAH *   FOG       28  28 100 E9        29.97F VSB 1   WCI  20
$$

IAZ047>049-059>061-072>074-084-241500-
   CENTRAL IOWA

CITY           SKY/WX    TMP DP  RH WIND       PRES   REMARKS
AMES           LGT SNOW  26  22  84 E14       30.01F FOG     WCI  14
ANKENY *       MOSUNNY   27  25  93 E13       30.02F FOG     WCI  16
BOONE *        CLOUDY    25  23  93 E22       29.99F FOG     WCI  10
CHARITON *     MOSUNNY   28  28 100 E12G18    30.01F FOG     WCI  18
DES MOINES     FRZ RAIN  28  24  85 E13       30.01F WCI  17
GRINNELL*      CLOUDY    28  26  89 E15       30.07F WCI  17
KNOXVILLE *    PTSUNNY   28  27  93 E12G17    30.02S FOG     WCI  18
MARSHALLTOWN   CLOUDY    26  24  92 E14       30.05F FOG     WCI  14
NEWTON *       MIX PCPN  28  27  93 E14       30.03F WCI  17
PELLA *        MIX PCPN  29  27  91 E9G16     30.06F WCI  21
$$

IAZ004>006-015-016-023>025-035-036-241500-
   NORTH CENTRAL IOWA

CITY           SKY/WX    TMP DP  RH WIND       PRES   REMARKS
CLARION *        N/A     19  19 100 E14       30.05S WCI   6
ESTHERVILLE    CLOUDY    13  11  92 E8        30.02S FOG     WCI   2
FORT DODGE *   CLOUDY    17  15  92 E14       30.02F FOG     WCI   3
MASON CITY     CLOUDY    17  14  88 E10       30.07F FOG     WCI   5
FOREST CITY *  FAIR     N/A N/A N/A E7        30.05F HAZE
WEBSTER CITY * CLOUDY    21  19  93 E10       30.01F FOG     WCI  10
IOWA FALLS *   CLOUDY    24  22  93 E13       30.04F FOG     WCI  13
$$

IAZ007>011-017>019-026>030-037>042-050>054-066-241500-
   NORTHEAST IOWA

CITY           SKY/WX    TMP DP  RH WIND       PRES   REMARKS
CEDAR RAPIDS   MIX PCPN  30  25  81 E14       30.08S WCI  19
CHARLES CITY * FAIR      21  21 100 E10       30.10R FOG     WCI  10
CLINTON *      CLOUDY    31  28  89 E13       30.14S WCI  21
DECORAH *      FAIR      21  21 100 E10       30.09F FOG     WCI  10
DUBUQUE        CLOUDY    28  23  81 E14       30.10F WCI  17
MONTICELLO *   PTSUNNY   28  27  93 E8G18     30.11S WCI  20
OELWEIN *      CLOUDY    25  25 100 E10       30.10F WCI  15
WATERLOO       PTSUNNY   24  23  96 E8        30.10F FOG     WCI  15
$$

IAZ064-065-067-068-078-241500-
   EAST CENTRAL IOWA

CITY           SKY/WX    TMP DP  RH WIND       PRES   REMARKS
DAVENPORT      PTSUNNY   32  27  81 E14       30.13S HAZE    WCI  22
IOWA CITY      LGT SNOW  32  26  78 E8        30.11S WCI  25
MT. PLEASANT * CLOUDY    32  30  93 E12       30.08S FOG     WCI  23
MUSCATINE *    PTSUNNY   34  28  80 E12G18    30.11F WCI  25
QUAD CITIES    MIX PCPN  33  29  85 E14       30.11F FOG     WCI  23
$$

IAZ062-063-075>077-085>089-095>099-241500-
   SOUTHEAST IOWA

CITY           SKY/WX    TMP DP  RH WIND       PRES   REMARKS
BURLINGTON     CLOUDY    32  29  88 E12       30.07F FOG     WCI  23
FAIRFIELD *    CLOUDY    30  28  93 E13G18    30.06S WCI  20
FORT MADISON * MIX PCPN  32  30  93 E10       30.07F WCI  24
KEOKUK *       LGT RAIN  32  32 100 E10       30.06F WCI  24
OSKALOOSA *    MIX PCPN  30  28  92 E13       30.05F WCI  20
OTTUMWA        MIX PCPN  30  27  88 E14       30.05F FOG     WCI  19
WASHINGTON *   LGT RAIN  30  32 100 E13       30.09S WCI  20
$$

ABBREVIATIONS USED IN REMARKS
   TC - TEMPERATURES IN CELSIUS
  WCI - WIND CHILL INDEX
   HX - HEAT INDEX
  VSB - VISIBILITY
$$





USA.gov is the U.S. government's official web portal to all federal, state and local government web resources and services.